Weather observations for the past three days for
Pope Army Airfield
Imperial (Metric)
Date Time (edt) Wind (mph) Vis. (mi.) Weather Sky Cond. Temperature (ºF) Relative Humidity Wind Chill (°F) Heat Index (°F) Pressure Precipitation (in)
Air Dwpt 6 hour altimeter (in) sea level (mb) 1 hr 3 hr 6 hr
Max. Min.
03 00:55 S 5 10.00 Fair CLR 83.7 75.2 76% 92 30.02 1016.5
02 23:55 S 7 10.00 Fair CLR 85.1 76.3 75% 95 30.01 1016.2
02 22:55 S 9 10.00 Fair CLR 86.9 75.4 69% 97 30 1015.9
02 21:55 Calm 10.00 A Few Clouds FEW100 83.5 78.8 86% 95 30.02 1016.6
02 20:55 N 3 10.00 Fair CLR 83.7 77.9 83% 94 30.02 1016.6
02 19:55 Calm 10.00 Fair CLR 90.3 73.9 98.8 90.3 59% 100 30 1015.9
02 18:55 E 3 10.00 Fair CLR 93.7 72.9 51% 103 29.99 1015.5
02 17:55 Calm 10.00 Fair CLR 97.3 69.6 41% 104 29.99 1015.5
02 16:55 E 5 10.00 Fair CLR 98.6 67.6 37% 104 30 1015.9
02 15:55 NE 5 10.00 Fair CLR 98.1 68 38% 103 30.01 1016.2
02 14:55 Calm 10.00 Fair CLR 96.6 67.5 39% 101 30.02 1016.5
02 13:55 N 5 10.00 Fair CLR 97.2 68.7 97.2 78.4 40% 103 30.03 1016.9
02 12:55 N 3 10.00 Fair CLR 94.6 71.8 48% 103 30.05 1017.6
02 11:55 Calm 10.00 Fair CLR 92.3 73.8 55% 102 30.06 1017.9
02 10:55 Calm 10.00 Fair CLR 90.1 74.3 60% 100 30.05 1017.6
02 09:55 Calm 10.00 Fair CLR 85.5 76.1 74% 95 30.05 1017.6
02 08:55 Calm 10.00 Fair CLR 81.5 76.1 84% 88 30.05 1017.6
02 07:55 W 3 10.00 Fair CLR 78.4 76.8 80.1 76.5 95% 82 30.06 1017.9
02 06:55 SW 3 10.00 Fair CLR 77 76.1 97% 78 30.05 1017.6
02 05:55 SW 6 10.00 Fair CLR 77.4 75.7 95% 79 30.04 1017.2
02 04:55 SW 5 10.00 Fair CLR 77.9 75.9 94% 80 30.04 1017.2
02 03:55 SW 6 10.00 Fair CLR 78.3 75.9 93% 81 30.04 1017.2
02 02:55 SW 7 10.00 Fair CLR 79.2 75.2 88% 83 30.04 1017.2
02 01:55 SW 7 10.00 Fair CLR 79.9 74.8 90.1 79.9 85% 85 30.05 1017.6
02 00:55 SW 8 10.00 Fair CLR 81.7 75.9 83% 89 30.04 1017.2
01 23:55 S 8 10.00 Fair CLR 83.5 75 76% 91 30.02 1016.5
01 22:55 S 8 10.00 Fair CLR 85.6 72.9 66% 92 30.02 1016.5
01 21:55 Calm 10.00 Fair CLR 81.5 78.3 90% 90 30.02 1016.6
01 20:55 Calm 10.00 Fair CLR 81.9 76.5 84% 89 30 1015.9
01 19:55 S 5 10.00 Fair CLR 89.2 72.5 96.3 89.1 58% 97 30 1015.9
01 18:55 Calm 10.00 Fair CLR 92.7 71.2 50% 100 30 1015.9
01 17:55 W 3 10.00 Fair CLR 93.4 68.2 44% 98 30 1015.9
01 16:55 Calm 10.00 Fair CLR 94.6 67.8 42% 99 30 1015.9
01 15:55 NE 5 10.00 Partly Cloudy SCT070 95.7 69.6 43% 102 30.01 1016.2
01 14:55 Calm 10.00 A Few Clouds FEW095 94.8 68 42% 100 30.03 1016.9
01 13:55 W 3 10.00 Mostly Cloudy BKN050 BKN070 93.9 70 95 76.8 46% 100 30.04 1017.2
01 12:55 Calm 10.00 A Few Clouds FEW065 92.7 70 48% 99 30.05 1017.6
01 11:55 SW 3 10.00 Fair CLR 90.7 71.6 54% 98 30.08 1018.6
01 10:55 NW 8 10.00 Fair CLR 89.2 73.9 61% 98 30.09 1018.9
01 09:55 W 6 10.00 Fair CLR 85.8 75.2 71% 95 30.08 1018.6
01 08:55 W 5 10.00 Fair CLR 81 77 88% 88 30.09 1019.0
01 07:55 Calm 10.00 Fair CLR 76.6 75.7 77.9 75.6 97% 77 30.07 1018.3
01 06:55 SW 3 10.00 Fair CLR 75.2 68 78% 76 30.06 0.0
01 05:55 SW 6 10.00 Fair CLR 75.7 74.8 97% 75 30.06 1017.9
01 04:55 SW 3 10.00 Fair CLR 76.3 75.4 97% 76 30.06 1017.9
01 03:55 SW 5 10.00 Fair CLR 76.8 75.9 97% 77 30.07 1018.3
01 02:55 SW 6 10.00 Fair CLR 77.2 76.3 97% 78 30.07 1018.3
01 01:55 W 5 10.00 Fair CLR 78.1 76.1 86.7 77.4 94% 81 30.08 1018.6
01 00:55 S 6 10.00 Fair CLR 79.5 76.6 91% 84 30.08 1018.6
31 23:55 S 5 10.00 Fair CLR 80.4 75.4 85% 86 30.08 1018.6
31 22:55 Calm 10.00 Fair CLR 78.1 75.7 93% 81 30.07 1018.3
31 21:55 Calm 10.00 Fair CLR 78.6 75.7 91% 82 30.07 1018.3
31 20:55 SE 3 10.00 Fair CLR 85.1 70 61% 90 30.05 1017.6
31 18:55 E 5 10.00 Fair CLR 89.4 70.5 54% 95 30.03 1017.0
31 17:55 Calm 10.00 Fair CLR 92.3 67.1 44% 96 30.04 1017.3
31 16:55 S 3 10.00 Fair CLR 91.6 65.1 42% 94 30.04 1017.3
31 15:55 NE 5 10.00 Fair CLR 93 69.8 47% 99 30.06 1017.9
31 14:55 Calm 10.00 Fair CLR 92.7 69.4 47% 98 30.08 1018.6
31 13:55 NE 3 10.00 Fair CLR 91.4 71.2 91.4 71.6 52% 98 30.1 1019.3
31 12:55 Calm 10.00 Fair CLR 88.2 71.4 58% 94 30.1 1019.3
31 11:55 Calm 10.00 A Few Clouds FEW033 87.6 72.5 61% 95 30.12 1020.0
31 10:55 Calm 10.00 A Few Clouds FEW024 86.2 74.3 68% 95 30.12 1020.0
31 09:55 S 3 10.00 Fair CLR 82.2 76.5 83% 90 30.11 1019.7
31 08:55 Calm 10.00 Fair CLR 76.1 57.2 52% 78 30.12 1020.0
31 07:55 Calm 8.00 A Few Clouds FEW000 71.4 70.5 73.8 69.8 97% 30.11 1019.7
31 06:55 Calm 0.38 Fog VV000 70.7 69.8 97% 30.11 1019.7
31 05:55 Calm 10.00 Fair CLR 70 69.1 97% 30.1 1019.4
31 04:55 Calm 10.00 Fair CLR 70.5 69.6 97% 30.1 1019.3
31 03:55 Calm 10.00 Fair CLR 71.1 70.2 97% 30.1 1019.3
Date Time (edt) Wind (mph) Vis. (mi.) Weather Sky Cond. Air Dwpt Max. Min. Relative Humidity Wind Chill (°F) Heat Index (°F) altimeter (in) sea level (mb) 1 hr 3 hr 6 hr
6 hour
Temperature (ºF) Pressure Precipitation (in)